STARLINK-6105 (56118 NORAD) Tracking and Keplerian Element Data

This shows tracking and keplerian element data for the satellite.

Feedback or suggestion? Click here.




ElementValue
Catalog56118
NameSTARLINK-6105
Epoch Orbit652
Epoch Day127.25001157
Epoch Year2023
RAAN37.5705
Inclination43.0012
Eccentricity0.00014
Argument of Perigee271.9254
Mean Anonmoly204.9658
Mean Motion15.31703056
Decay Rate-0.00896421
L11 56118U 23046AB 23127.25001157 -.00896421 00000+0 -31242-1 0 9996
L22 56118 43.0012 37.5705 0001400 271.9254 204.9658 15.31703056 6523



Live tracking and technical data element details for STARLINK-6105 (NORAD 56118). STARLINK-6105 can be tracked NOW for your location showing map with azimuth and elevation plus other details from your city location.







IsCatalogInMostPopularTable: catalog: 56118, numindb: 4
Update: records affected: 1



GetName: 56118 STARLINK-6105

Hit Count: updated at: Sun, 04 Jun 2023 23:46:49 GMT